sat.trackr.live / text

‹ back to catalog

STARLINK-31858

NORAD 59658 · 2024-084E

PAYLOAD ACTIVE UNKNOWN

§ Identity

Operator
Country
US
Launch date
2024-05-06
Launch site
AFETR
Launch vehicle
Mass (kg)
RCS (m²)

Purposes: comms

External: N2YO · Heavens-Above · Gunter

§ Orbital elements

Epoch: 2026-05-24T14:03:50.506272Z

Period
94.27 min
Inclination
43.0033°
Eccentricity
0.0001226
Mean motion
15.27575362 rev/d
Perigee alt
482.2 km
Apogee alt
483.9 km
Semi-major
6,861.2 km
B*
3.2386e-5
RAAN
332.9094°
Arg perigee
276.7997°
Mean anomaly
83.2715°
Rev number
11,598

§ Raw data

STARLINK-318581 59658U 24084E   26144.58600123  .00000629  00000+0  32386-4 0  99952 59658  43.0033 332.9094 0001226 276.7997  83.2715 15.27575362115989

JSON: /api/v1/satellites/59658 · /tle

For live sub-satellite position, see the globe view (requires WebGL).

§ Visibility from observer

Set your observer location to see the next 7 days of passes ≥ 10°. The values pass through the URL so the page stays shareable.

No JS? Fill the form by hand. The geolocation button needs JavaScript.